Showing default

HULIANWANG DIGUI-08, 62330

Orbit data source: Space-Track

HULIANWANG DIGUI-08, 62330 is a payload satellite owned by Zhongguo Xingwang (CN) in LEO that was launched on Mon, 16 Dec 2024 UTC via a CHANG ZHENG 5B/YZ-2 launch vehicle from the Wenchang Satellite Launch Center (WSC). Payload-class satellites include a variety of spacecraft equipped with specific instruments for various scientific and technological missions. These include communications satellites like Starlink; space stations such as the ISS; scientific satellites like the Hubble; Earth observation satellites from companies like Planet Labs, Umbra, and HawkEye 360; GPS; miniature CubeSats for education and research; and military/defense satellites.

Loading next visibility...
Identifier
62330, 2024-240H
Orbit
LEO
Country
Flag of CNCN / PRC
Related business
Manufacturer
CAST?
Mission
Operational Civil Communications
Bus & Motor
GUOWANG C, Unknown motor
Mass
~800 kg wet, ~800 kg dry
Launch date (UTC)
2024-12-16 (10 months ago)
Launch vehicle
CHANG ZHENG 5B/YZ-2
Launch site
Wenchang Satellite Launch Center (WSC)
Object type
Payload
Rocket body
Debris
Shape & HBR
Box + 2 Pan, 5.0 m
Radar Cross Section
5.935 m², Large (>1 m²)

Expand to show TLE details & history
Last TLE update: 4 hours ago

TLE from 4 hours ago
0 HULIANWANG DIGUI-08
1 62330U 24240H   25291.28988119  .00000044  00000-0  68082-4 0  9997
2 62330  86.4996  64.9235 0001869 104.3516 255.7826 13.24414159 40622
Epoch: 2025-10-18T06:57Z
TLE epoch observation values (Epoch: 2025-10-18T06:57:25.734Z)
Latitude
-0°
Longitude
-66.45675°
Altitude
1,171.147 km
Speed
7.268 km/s
True Right ascension
04h 19m 41s
True Declination
0° 00' 00"
Sunlit
Object was in full shadow at epoch
Visualization orbit readout
Latitude
Unknown
Longitude
Unknown
Altitude
Unknown
Speed
Unknown
Apparent Right ascension
Unknown
Apparent Declination
Unknown
Sunlit
N/A
Visualization observer readout
Local Sidereal Time
06:05:06
Azimuth
Unknown
Elevation
Unknown
Doppler factor
Unknown
Orbital elements
Apogee altitude
1,166.436 km
Perigee altitude
1,163.616 km
Semi-major axis
7,543.163 km
Eccentricity
0.00019
Inclination
86.4996°
RAAN
64.9235°
Arg. of periapsis
104.3516°
True anomaly
255.76184°
Mean anomaly
255.7826°
Eccentric anomaly
255.77222°
Mean motion
3.31293 °/min
Orbital period
108.66 mins
BSTAR
0.000068082
Loading maneuver chart data...
Computing Atmospheric mass density...
Loading historical data...
Loading historical data...
Loading historical data...
Loading historical data...
Loading historical data...
Loading historical data...
Loading historical data...

Documentation

Showing up to 5 results
|